Time,TemperatureF,DewpointF,PressureIn,WindDirection,WindDirectionDegrees,WindSpeedMPH,WindSpeedGustMPH,Humidity,HourlyPrecipIn,Conditions,Clouds,dailyrainin,SoftwareType,DateUTC
2013-05-09 00:02:00,63.0,40.0,29.89,South,180,0.0,0.0,43,-99.99,,,-99.99,,2013-05-09 05:02:00,
2013-05-09 00:12:00,63.0,40.0,29.89,South,180,0.0,0.0,43,-99.99,,,-99.99,,2013-05-09 05:12:00,
2013-05-09 00:22:00,63.0,41.0,29.90,SE,144,1.0,1.0,45,-99.99,,,-99.99,,2013-05-09 05:22:00,
2013-05-09 00:32:00,63.0,41.0,29.89,SSW,209,0.0,1.0,44,-99.99,,,-99.99,,2013-05-09 05:32:00,
2013-05-09 00:42:00,63.0,41.0,29.89,SSW,209,0.0,1.0,44,-99.99,,,-99.99,,2013-05-09 05:42:00,
2013-05-09 00:51:00,63.0,41.0,29.89,SSW,209,0.0,1.0,44,-99.99,,,-99.99,,2013-05-09 05:51:00,
2013-05-09 01:02:00,63.0,42.0,29.89,South,180,0.0,0.0,47,-99.99,,,-99.99,,2013-05-09 06:02:00,
2013-05-09 01:12:00,63.0,42.0,29.89,South,180,0.0,0.0,47,-99.99,,,-99.99,,2013-05-09 06:12:00,
2013-05-09 01:21:00,62.0,43.0,29.88,SE,135,0.0,0.0,49,-99.99,,,-99.99,,2013-05-09 06:21:00,
2013-05-09 01:32:00,62.0,43.0,29.88,SE,135,0.0,0.0,50,-99.99,,,-99.99,,2013-05-09 06:32:00,
2013-05-09 01:42:00,62.0,43.0,29.88,SE,135,0.0,0.0,50,-99.99,,,-99.99,,2013-05-09 06:42:00,
2013-05-09 01:52:00,62.0,43.0,29.88,SE,135,0.0,0.0,50,-99.99,,,-99.99,,2013-05-09 06:52:00,
2013-05-09 02:01:00,61.0,43.0,29.88,SE,135,0.0,0.0,52,-99.99,,,-99.99,,2013-05-09 07:01:00,
2013-05-09 02:12:00,61.0,43.0,29.88,SE,135,0.0,0.0,52,-99.99,,,-99.99,,2013-05-09 07:12:00,
2013-05-09 02:21:00,61.0,43.0,29.88,SE,135,0.0,0.0,52,-99.99,,,-99.99,,2013-05-09 07:21:00,
2013-05-09 02:32:00,60.0,44.0,29.87,South,180,0.0,0.0,55,-99.99,,,-99.99,,2013-05-09 07:32:00,
2013-05-09 02:42:00,60.0,44.0,29.87,South,180,0.0,0.0,55,-99.99,,,-99.99,,2013-05-09 07:42:00,
2013-05-09 02:52:00,60.0,43.0,29.88,South,180,0.0,0.0,54,-99.99,,,-99.99,,2013-05-09 07:52:00,
2013-05-09 03:02:00,60.0,43.0,29.88,South,180,0.0,0.0,54,-99.99,,,-99.99,,2013-05-09 08:02:00,
2013-05-09 03:11:00,60.0,43.0,29.88,South,180,0.0,0.0,54,-99.99,,,-99.99,,2013-05-09 08:11:00,
2013-05-09 03:21:00,59.0,44.0,29.88,South,180,0.0,0.0,57,-99.99,,,-99.99,,2013-05-09 08:21:00,
2013-05-09 03:32:00,59.0,44.0,29.88,South,180,0.0,0.0,57,-99.99,,,-99.99,,2013-05-09 08:32:00,
2013-05-09 03:42:00,58.0,44.0,29.87,South,180,0.0,0.0,60,-99.99,,,-99.99,,2013-05-09 08:42:00,
2013-05-09 03:51:00,58.0,44.0,29.87,South,180,0.0,0.0,60,-99.99,,,-99.99,,2013-05-09 08:51:00,
2013-05-09 04:02:00,58.0,45.0,29.87,South,180,0.0,0.0,61,-99.99,,,-99.99,,2013-05-09 09:02:00,
2013-05-09 04:11:00,58.0,45.0,29.87,South,180,0.0,0.0,61,-99.99,,,-99.99,,2013-05-09 09:11:00,
2013-05-09 04:21:00,58.0,45.0,29.87,South,180,0.0,0.0,62,-99.99,,,-99.99,,2013-05-09 09:21:00,
2013-05-09 04:32:00,58.0,45.0,29.87,South,180,0.0,0.0,62,-99.99,,,-99.99,,2013-05-09 09:32:00,
2013-05-09 04:42:00,58.0,45.0,29.87,South,180,0.0,0.0,62,-99.99,,,-99.99,,2013-05-09 09:42:00,
2013-05-09 04:53:00,58.0,45.0,29.87,South,180,0.0,0.0,62,-99.99,,,-99.99,,2013-05-09 09:53:00,
2013-05-09 05:02:00,58.0,45.0,29.87,South,180,0.0,0.0,62,-99.99,,,-99.99,,2013-05-09 10:02:00,
2013-05-09 05:12:00,58.0,45.0,29.87,South,180,0.0,0.0,62,-99.99,,,-99.99,,2013-05-09 10:12:00,
2013-05-09 05:22:00,58.0,45.0,29.87,South,180,0.0,0.0,62,-99.99,,,-99.99,,2013-05-09 10:22:00,
2013-05-09 05:52:00,58.0,47.0,29.88,SE,135,0.0,0.0,66,-99.99,,,-99.99,,2013-05-09 10:52:00,
2013-05-09 06:02:00,58.0,47.0,29.88,SE,135,0.0,0.0,66,-99.99,,,-99.99,,2013-05-09 11:02:00,
2013-05-09 06:12:00,58.0,49.0,29.88,ESE,110,2.0,2.0,72,-99.99,,,-99.99,,2013-05-09 11:12:00,
2013-05-09 06:22:00,58.0,49.0,29.88,ESE,110,2.0,2.0,72,-99.99,,,-99.99,,2013-05-09 11:22:00,
2013-05-09 06:32:00,58.0,48.0,29.87,NE,45,0.0,0.0,69,-99.99,,,-99.99,,2013-05-09 11:32:00,
2013-05-09 06:42:00,58.0,48.0,29.87,NE,45,0.0,0.0,69,-99.99,,,-99.99,,2013-05-09 11:42:00,
2013-05-09 06:52:00,58.0,47.0,29.87,North,0,0.0,0.0,68,-99.99,,,-99.99,,2013-05-09 11:52:00,
2013-05-09 07:01:00,58.0,47.0,29.87,North,0,0.0,0.0,68,-99.99,,,-99.99,,2013-05-09 12:01:00,
2013-05-09 07:11:00,58.0,47.0,29.89,SSW,207,0.0,1.0,68,-99.99,,,-99.99,,2013-05-09 12:11:00,
2013-05-09 07:22:00,58.0,47.0,29.89,SSW,207,0.0,1.0,68,-99.99,,,-99.99,,2013-05-09 12:22:00,
2013-05-09 07:31:00,58.0,47.0,29.89,East,90,1.0,1.0,67,-99.99,,,-99.99,,2013-05-09 12:31:00,
2013-05-09 07:42:00,58.0,46.0,29.88,NNW,337,0.0,0.0,65,-99.99,,,-99.99,,2013-05-09 12:42:00,
2013-05-09 07:52:00,58.0,46.0,29.88,NNW,337,0.0,0.0,65,-99.99,,,-99.99,,2013-05-09 12:52:00,
2013-05-09 08:01:00,58.0,46.0,29.88,NW,315,0.0,0.0,64,-99.99,,,-99.99,,2013-05-09 13:01:00,
2013-05-09 08:12:00,58.0,46.0,29.88,NW,315,0.0,0.0,64,-99.99,,,-99.99,,2013-05-09 13:12:00,
2013-05-09 08:21:00,58.0,46.0,29.88,NW,315,0.0,0.0,64,-99.99,,,-99.99,,2013-05-09 13:21:00,
2013-05-09 08:32:00,58.0,46.0,29.88,NW,315,0.0,0.0,64,-99.99,,,-99.99,,2013-05-09 13:32:00,
2013-05-09 09:02:00,60.0,47.0,29.89,NNE,24,0.0,0.0,61,-99.99,,,-99.99,,2013-05-09 14:02:00,
2013-05-09 09:11:00,60.0,47.0,29.89,NNE,24,0.0,0.0,61,-99.99,,,-99.99,,2013-05-09 14:11:00,
2013-05-09 09:21:00,60.0,46.0,29.90,North,0,0.0,0.0,60,-99.99,,,-99.99,,2013-05-09 14:21:00,
2013-05-09 09:32:00,60.0,47.0,29.90,NE,45,0.0,0.0,62,-99.99,,,-99.99,,2013-05-09 14:32:00,
2013-05-09 09:41:00,60.0,47.0,29.90,NE,45,0.0,0.0,62,-99.99,,,-99.99,,2013-05-09 14:41:00,
2013-05-09 09:52:00,61.0,47.0,29.90,NE,45,0.0,0.0,61,-99.99,,,-99.99,,2013-05-09 14:52:00,
2013-05-09 10:01:00,61.0,47.0,29.90,NE,45,0.0,0.0,61,-99.99,,,-99.99,,2013-05-09 15:01:00,
2013-05-09 10:11:00,61.0,47.0,29.90,NE,45,0.0,0.0,61,-99.99,,,-99.99,,2013-05-09 15:11:00,
2013-05-09 10:22:00,62.0,48.0,29.91,West,270,2.0,3.0,61,-99.99,,,-99.99,,2013-05-09 15:22:00,
2013-05-09 10:33:00,62.0,48.0,29.91,North,0,0.0,0.0,61,-99.99,,,-99.99,,2013-05-09 15:33:00,
2013-05-09 10:43:00,61.0,48.0,29.93,SW,229,0.0,1.0,62,-99.99,,,-99.99,,2013-05-09 15:43:00,
2013-05-09 10:53:00,61.0,48.0,29.93,SW,229,0.0,1.0,62,-99.99,,,-99.99,,2013-05-09 15:53:00,
2013-05-09 11:03:00,61.0,49.0,29.93,West,270,0.0,0.0,64,-99.99,,,-99.99,,2013-05-09 16:03:00,
2013-05-09 11:12:00,61.0,49.0,29.93,West,270,0.0,0.0,64,-99.99,,,-99.99,,2013-05-09 16:12:00,
2013-05-09 11:22:00,60.0,49.0,29.93,NE,35,0.0,1.0,68,-99.99,,,-99.99,,2013-05-09 16:22:00,
2013-05-09 11:33:00,60.0,49.0,29.92,NW,324,0.0,1.0,68,-99.99,,,-99.99,,2013-05-09 16:33:00,
2013-05-09 11:42:00,60.0,50.0,29.93,NE,45,0.0,0.0,69,-99.99,,,-99.99,,2013-05-09 16:42:00,
2013-05-09 11:53:00,60.0,50.0,29.93,NE,45,0.0,0.0,69,-99.99,,,-99.99,,2013-05-09 16:53:00,
2013-05-09 12:02:00,59.0,50.0,29.92,North,0,1.0,1.0,72,-99.99,,,-99.99,,2013-05-09 17:02:00,
2013-05-09 12:12:00,59.0,50.0,29.92,North,0,1.0,1.0,72,-99.99,,,-99.99,,2013-05-09 17:12:00,
2013-05-09 12:21:00,58.0,50.0,29.92,NNW,348,0.0,3.0,75,-99.99,,,-99.99,,2013-05-09 17:21:00,
2013-05-09 12:32:00,58.0,50.0,29.92,North,10,0.0,1.0,76,-99.99,,,-99.99,,2013-05-09 17:32:00,
2013-05-09 12:42:00,58.0,50.0,29.92,North,10,0.0,1.0,76,-99.99,,,-99.99,,2013-05-09 17:42:00,
2013-05-09 12:55:00,57.0,50.0,29.91,North,0,1.0,1.0,78,-99.99,,,-99.99,,2013-05-09 17:55:00,
2013-05-09 13:01:00,57.0,51.0,29.90,North,0,0.0,1.0,79,-99.99,,,-99.99,,2013-05-09 18:01:00,
2013-05-09 13:12:00,57.0,51.0,29.90,North,0,0.0,1.0,79,-99.99,,,-99.99,,2013-05-09 18:12:00,
2013-05-09 13:21:00,57.0,51.0,29.90,NE,45,0.0,1.0,79,-99.99,,,-99.99,,2013-05-09 18:21:00,
2013-05-09 13:31:00,57.0,51.0,29.90,NE,45,0.0,1.0,79,-99.99,,,-99.99,,2013-05-09 18:31:00,
2013-05-09 13:42:00,57.0,51.0,29.90,NE,45,0.0,1.0,79,-99.99,,,-99.99,,2013-05-09 18:42:00,
2013-05-09 13:52:00,57.0,50.0,29.90,North,0,1.0,2.0,78,-99.99,,,-99.99,,2013-05-09 18:52:00,
2013-05-09 14:01:00,57.0,50.0,29.90,North,0,1.0,2.0,78,-99.99,,,-99.99,,2013-05-09 19:01:00,
2013-05-09 14:12:00,57.0,50.0,29.90,North,0,1.0,2.0,78,-99.99,,,-99.99,,2013-05-09 19:12:00,
2013-05-09 14:21:00,58.0,51.0,29.91,NE,45,0.0,1.0,77,-99.99,,,-99.99,,2013-05-09 19:21:00,
2013-05-09 14:32:00,58.0,51.0,29.91,NE,45,0.0,1.0,77,-99.99,,,-99.99,,2013-05-09 19:32:00,
2013-05-09 14:42:00,58.0,50.0,29.91,NW,319,0.0,1.0,76,-99.99,,,-99.99,,2013-05-09 19:42:00,
2013-05-09 14:52:00,58.0,50.0,29.91,NW,319,0.0,1.0,76,-99.99,,,-99.99,,2013-05-09 19:52:00,
2013-05-09 15:01:00,58.0,50.0,29.91,NW,315,0.0,1.0,76,-99.99,,,-99.99,,2013-05-09 20:01:00,
2013-05-09 15:11:00,58.0,50.0,29.91,NW,315,0.0,1.0,76,-99.99,,,-99.99,,2013-05-09 20:11:00,
2013-05-09 15:22:00,58.0,50.0,29.90,NE,45,0.0,0.0,76,-99.99,,,-99.99,,2013-05-09 20:22:00,
2013-05-09 15:32:00,58.0,51.0,29.90,North,4,0.0,1.0,77,-99.99,,,-99.99,,2013-05-09 20:32:00,
2013-05-09 15:42:00,58.0,52.0,29.89,NNE,13,0.0,1.0,79,-99.99,,,-99.99,,2013-05-09 20:42:00,
2013-05-09 15:52:00,58.0,52.0,29.89,NNE,13,0.0,1.0,79,-99.99,,,-99.99,,2013-05-09 20:52:00,
2013-05-09 16:01:00,58.0,52.0,29.89,NE,45,0.0,2.0,81,-99.99,,,-99.99,,2013-05-09 21:01:00,
2013-05-09 16:11:00,58.0,52.0,29.89,NE,45,0.0,2.0,81,-99.99,,,-99.99,,2013-05-09 21:11:00,
2013-05-09 16:22:00,58.0,52.0,29.88,ENE,76,0.0,0.0,81,-99.99,,,-99.99,,2013-05-09 21:22:00,
2013-05-09 16:32:00,58.0,53.0,29.89,NE,45,0.0,1.0,82,-99.99,,,-99.99,,2013-05-09 21:32:00,
2013-05-09 16:43:00,58.0,53.0,29.88,NE,36,1.0,1.0,82,-99.99,,,-99.99,,2013-05-09 21:43:00,
2013-05-09 16:53:00,58.0,53.0,29.88,NE,36,1.0,1.0,82,-99.99,,,-99.99,,2013-05-09 21:53:00,
2013-05-09 17:03:00,57.0,52.0,29.88,ENE,76,1.0,3.0,82,-99.99,,,-99.99,,2013-05-09 22:03:00,
2013-05-09 17:12:00,57.0,51.0,29.89,NE,45,1.0,1.0,80,-99.99,,,-99.99,,2013-05-09 22:12:00,
2013-05-09 17:22:00,57.0,51.0,29.89,NE,45,1.0,1.0,80,-99.99,,,-99.99,,2013-05-09 22:22:00,
2013-05-09 17:33:00,56.0,50.0,29.89,ENE,65,2.0,2.0,80,-99.99,,,-99.99,,2013-05-09 22:33:00,
2013-05-09 17:42:00,56.0,51.0,29.88,NE,49,1.0,1.0,82,-99.99,,,-99.99,,2013-05-09 22:42:00,
2013-05-09 17:52:00,56.0,51.0,29.88,NE,49,1.0,1.0,82,-99.99,,,-99.99,,2013-05-09 22:52:00,
2013-05-09 18:02:00,56.0,50.0,29.88,ENE,67,3.0,3.0,81,-99.99,,,-99.99,,2013-05-09 23:02:00,
2013-05-09 18:12:00,55.0,49.0,29.89,NNE,27,3.0,3.0,80,-99.99,,,-99.99,,2013-05-09 23:12:00,
2013-05-09 18:21:00,55.0,49.0,29.89,NNE,27,3.0,3.0,80,-99.99,,,-99.99,,2013-05-09 23:21:00,
2013-05-09 18:32:00,55.0,49.0,29.89,North,0,1.0,2.0,81,-99.99,,,-99.99,,2013-05-09 23:32:00,
2013-05-09 18:42:00,55.0,50.0,29.89,NE,54,1.0,2.0,82,-99.99,,,-99.99,,2013-05-09 23:42:00,
2013-05-09 18:52:00,55.0,50.0,29.89,NE,54,1.0,2.0,82,-99.99,,,-99.99,,2013-05-09 23:52:00,
2013-05-09 19:01:00,55.0,50.0,29.89,ENE,67,1.0,2.0,82,-99.99,,,-99.99,,2013-05-10 00:01:00,
2013-05-09 19:11:00,54.0,49.0,29.89,NE,42,1.0,2.0,83,-99.99,,,-99.99,,2013-05-10 00:11:00,
2013-05-09 19:22:00,54.0,49.0,29.89,NE,42,1.0,2.0,83,-99.99,,,-99.99,,2013-05-10 00:22:00,
2013-05-09 19:32:00,54.0,49.0,29.89,NE,45,1.0,1.0,84,-99.99,,,-99.99,,2013-05-10 00:32:00,
2013-05-09 19:42:00,54.0,49.0,29.89,NE,36,3.0,4.0,83,-99.99,,,-99.99,,2013-05-10 00:42:00,
2013-05-09 19:52:00,54.0,49.0,29.89,NE,36,3.0,4.0,83,-99.99,,,-99.99,,2013-05-10 00:52:00,
2013-05-09 20:01:00,54.0,49.0,29.89,NE,36,3.0,4.0,83,-99.99,,,-99.99,,2013-05-10 01:01:00,
2013-05-09 20:11:00,54.0,49.0,29.89,NE,36,3.0,4.0,83,-99.99,,,-99.99,,2013-05-10 01:11:00,
2013-05-09 20:21:00,54.0,49.0,29.89,NE,36,3.0,4.0,83,-99.99,,,-99.99,,2013-05-10 01:21:00,
2013-05-09 20:31:00,53.0,49.0,29.90,NNE,15,2.0,4.0,85,-99.99,,,-99.99,,2013-05-10 01:31:00,
2013-05-09 20:42:00,52.0,48.0,29.90,North,6,2.0,4.0,86,-99.99,,,-99.99,,2013-05-10 01:42:00,
2013-05-09 20:52:00,52.0,48.0,29.90,North,6,2.0,4.0,86,-99.99,,,-99.99,,2013-05-10 01:52:00,
2013-05-09 21:01:00,52.0,48.0,29.91,NNE,18,1.0,2.0,87,-99.99,,,-99.99,,2013-05-10 02:01:00,
2013-05-09 21:11:00,52.0,48.0,29.91,North,0,2.0,2.0,87,-99.99,,,-99.99,,2013-05-10 02:11:00,
2013-05-09 21:21:00,52.0,48.0,29.91,North,0,2.0,2.0,87,-99.99,,,-99.99,,2013-05-10 02:21:00,
2013-05-09 21:31:00,52.0,48.0,29.91,North,0,2.0,2.0,87,-99.99,,,-99.99,,2013-05-10 02:31:00,
2013-05-09 21:42:00,50.0,46.0,29.92,North,0,1.0,6.0,85,-99.99,,,-99.99,,2013-05-10 02:42:00,
2013-05-09 21:52:00,50.0,46.0,29.92,North,0,1.0,6.0,85,-99.99,,,-99.99,,2013-05-10 02:52:00,
2013-05-09 22:01:00,50.0,46.0,29.93,North,355,3.0,4.0,85,-99.99,,,-99.99,,2013-05-10 03:01:00,
2013-05-09 22:11:00,50.0,46.0,29.93,North,355,3.0,4.0,85,-99.99,,,-99.99,,2013-05-10 03:11:00,
2013-05-09 22:21:00,50.0,46.0,29.93,North,355,3.0,4.0,85,-99.99,,,-99.99,,2013-05-10 03:21:00,
2013-05-09 22:32:00,48.0,43.0,29.93,North,0,1.0,4.0,84,-99.99,,,-99.99,,2013-05-10 03:32:00,
2013-05-09 22:43:00,48.0,43.0,29.93,North,0,1.0,4.0,84,-99.99,,,-99.99,,2013-05-10 03:43:00,
2013-05-09 22:53:00,48.0,43.0,29.93,North,0,1.0,4.0,84,-99.99,,,-99.99,,2013-05-10 03:53:00,
2013-05-09 23:03:00,47.0,42.0,29.93,NNE,27,1.0,3.0,84,-99.99,,,-99.99,,2013-05-10 04:03:00,
2013-05-09 23:12:00,47.0,42.0,29.93,NNE,27,1.0,3.0,84,-99.99,,,-99.99,,2013-05-10 04:12:00,
2013-05-09 23:23:00,46.0,42.0,29.93,NE,38,2.0,3.0,85,-99.99,,,-99.99,,2013-05-10 04:23:00,
2013-05-09 23:33:00,46.0,42.0,29.93,NW,326,1.0,3.0,85,-99.99,,,-99.99,,2013-05-10 04:33:00,
2013-05-09 23:42:00,45.0,41.0,29.93,North,4,2.0,3.0,85,-99.99,,,-99.99,,2013-05-10 04:42:00,
2013-05-09 23:53:00,45.0,41.0,29.93,North,4,2.0,3.0,85,-99.99,,,-99.99,,2013-05-10 04:53:00,